,,PA_Meas_PMT16A,,PR_Meas_QMR101_102,,RH_Meas_QMH101,,SR_Meas_QMS101,,TA_Meas_QMH101,,GenWind,,GenWind,
time,status,PA,status,PR,status,RH,status,SR,status,TA,status,DirAvg,status,SpdAvg,
2012-10-26, 00:00:05,VALID,915.286,VALID,0,VALID,96.1313,VALID,0,VALID,20.0179,VALID,28,VALID,0,
2012-10-26, 00:01:05,VALID,915.266,VALID,0,VALID,96.116,VALID,0,VALID,19.9968,VALID,163,VALID,0,
2012-10-26, 00:02:05,VALID,915.307,VALID,0,VALID,96.1389,VALID,0,VALID,19.9968,VALID,163,VALID,0,
2012-10-26, 00:03:05,VALID,915.28,VALID,0,VALID,96.1541,VALID,0,VALID,19.9984,VALID,142,VALID,0,
2012-10-26, 00:04:05,VALID,915.269,VALID,0,VALID,96.116,VALID,0,VALID,19.9984,VALID,142,VALID,0,
2012-10-26, 00:05:05,VALID,915.237,VALID,0,VALID,96.0855,VALID,0,VALID,19.9578,VALID,142,VALID,0,
2012-10-26, 00:06:05,VALID,915.225,VALID,0,VALID,96.1236,VALID,0,VALID,19.9188,VALID,142,VALID,0,
2012-10-26, 00:07:05,VALID,915.227,VALID,0,VALID,96.1541,VALID,0,VALID,19.9398,VALID,164,VALID,0,
2012-10-26, 00:08:05,VALID,915.238,VALID,0,VALID,96.1923,VALID,0,VALID,19.9398,VALID,165,VALID,0,
2012-10-26, 00:09:05,VALID,915.236,VALID,0,VALID,96.2151,VALID,0,VALID,19.9398,VALID,165,VALID,0,
2012-10-26, 00:10:05,VALID,915.23,VALID,0,VALID,96.2304,VALID,0,VALID,19.9398,VALID,165,VALID,0,
2012-10-26, 00:11:05,VALID,915.285,VALID,0,VALID,96.2609,VALID,0,VALID,19.9398,VALID,165,VALID,0,
2012-10-26, 00:12:05,VALID,915.282,VALID,0,VALID,96.2685,VALID,0,VALID,19.9398,VALID,165,VALID,0,
2012-10-26, 00:13:05,VALID,915.332,VALID,0,VALID,96.3219,VALID,0,VALID,19.9398,VALID,165,VALID,0,
2012-10-26, 00:14:05,VALID,915.329,VALID,0,VALID,96.3066,VALID,0,VALID,19.9593,VALID,165,VALID,0,
2012-10-26, 00:15:05,VALID,915.343,VALID,0,VALID,96.3447,VALID,0,VALID,19.9593,VALID,173,VALID,0,
2012-10-26, 00:16:05,VALID,915.374,VALID,0,VALID,96.3295,VALID,0,VALID,19.9593,VALID,327,VALID,0,
2012-10-26, 00:17:05,VALID,915.386,VALID,0,VALID,96.3447,VALID,0,VALID,19.9593,VALID,327,VALID,0,
2012-10-26, 00:18:05,VALID,915.397,VALID,0,VALID,96.3676,VALID,0,VALID,19.9593,VALID,327,VALID,0,
2012-10-26, 00:19:05,VALID,915.396,VALID,0,VALID,96.3981,VALID,0,VALID,19.9788,VALID,327,VALID,0,
2012-10-26, 00:20:05,VALID,915.406,VALID,0,VALID,96.3676,VALID,0,VALID,19.9788,VALID,327,VALID,0,
2012-10-26, 00:21:05,VALID,915.457,VALID,0,VALID,96.3524,VALID,0,VALID,19.9593,VALID,327,VALID,0,
2012-10-26, 00:22:05,VALID,915.458,VALID,0,VALID,96.3524,VALID,0,VALID,19.9788,VALID,327,VALID,0,
2012-10-26, 00:23:05,VALID,915.453,VALID,0,VALID,96.3524,VALID,0,VALID,19.9788,VALID,327,VALID,0,
2012-10-26, 00:24:05,VALID,915.478,VALID,0,VALID,96.3295,VALID,0,VALID,19.9578,VALID,327,VALID,0,
2012-10-26, 00:25:05,VALID,915.437,VALID,0,VALID,96.3447,VALID,0,VALID,19.9788,VALID,327,VALID,0,
2012-10-26, 00:26:05,VALID,915.425,VALID,0,VALID,96.3829,VALID,0,VALID,19.9788,VALID,327,VALID,0,
2012-10-26, 00:27:05,VALID,915.409,VALID,0,VALID,96.36,VALID,0,VALID,20.0179,VALID,327,VALID,0,
2012-10-26, 00:28:05,VALID,915.392,VALID,0,VALID,96.36,VALID,0,VALID,20.0179,VALID,327,VALID,0,
2012-10-26, 00:29:04,VALID,915.361,VALID,0,VALID,96.3142,VALID,0,VALID,20.0374,VALID,327,VALID,0,
2012-10-26, 00:30:04,VALID,915.317,VALID,0,VALID,96.2837,VALID,0,VALID,20.0374,VALID,327,VALID,0,
2012-10-26, 00:31:04,VALID,915.336,VALID,0,VALID,96.2609,VALID,0,VALID,20.0569,VALID,327,VALID,0,
2012-10-26, 00:32:04,VALID,915.318,VALID,0,VALID,96.238,VALID,0,VALID,20.0553,VALID,327,VALID,0,
2012-10-26, 00:33:04,VALID,915.315,VALID,0,VALID,96.2304,VALID,0,VALID,20.0553,VALID,327,VALID,0,
2012-10-26, 00:34:04,VALID,915.317,VALID,0,VALID,96.116,VALID,0,VALID,20.0358,VALID,327,VALID,0,
2012-10-26, 00:35:04,VALID,915.312,VALID,0,VALID,96.0169,VALID,0,VALID,20.0179,VALID,327,VALID,0,
2012-10-26, 00:36:04,VALID,915.335,VALID,0,VALID,96.0093,VALID,0,VALID,19.9984,VALID,327,VALID,0,
2012-10-26, 00:37:04,VALID,915.313,VALID,0,VALID,96.0093,VALID,0,VALID,19.9593,VALID,349,VALID,0,
2012-10-26, 00:38:04,VALID,915.315,VALID,0,VALID,96.0169,VALID,0,VALID,19.9398,VALID,349,VALID,0,
2012-10-26, 00:39:04,VALID,915.294,VALID,0,VALID,96.0474,VALID,0,VALID,19.9203,VALID,349,VALID,0,
2012-10-26, 00:40:04,VALID,915.268,VALID,0,VALID,96.0627,VALID,0,VALID,19.9203,VALID,349,VALID,0,
2012-10-26, 00:41:04,VALID,915.27,VALID,0,VALID,96.1008,VALID,0,VALID,19.9008,VALID,349,VALID,0,
2012-10-26, 00:42:04,VALID,915.256,VALID,0,VALID,96.1236,VALID,0,VALID,19.8798,VALID,349,VALID,0,
2012-10-26, 00:43:04,VALID,915.225,VALID,0,VALID,96.1541,VALID,0,VALID,19.8603,VALID,349,VALID,0,
2012-10-26, 00:44:04,VALID,915.205,VALID,0,VALID,96.177,VALID,0,VALID,19.8618,VALID,349,VALID,0,
2012-10-26, 00:45:04,VALID,915.157,VALID,0,VALID,96.2456,VALID,0,VALID,19.8213,VALID,68,VALID,0,
2012-10-26, 00:46:04,VALID,915.121,VALID,0,VALID,96.299,VALID,0,VALID,19.8423,VALID,68,VALID,0,
2012-10-26, 00:47:04,VALID,915.107,VALID,0,VALID,96.3295,VALID,0,VALID,19.8213,VALID,68,VALID,0,
2012-10-26, 00:48:04,VALID,915.069,VALID,0,VALID,96.3524,VALID,0,VALID,19.8228,VALID,66,VALID,0,
2012-10-26, 00:49:04,VALID,915,VALID,0,VALID,96.3829,VALID,0,VALID,19.8018,VALID,53,VALID,0,
2012-10-26, 00:50:04,VALID,914.962,VALID,0,VALID,96.4286,VALID,0,VALID,19.8423,VALID,52,VALID,0,
2012-10-26, 00:51:04,VALID,914.956,VALID,0,VALID,96.4438,VALID,0,VALID,19.8618,VALID,52,VALID,0,
2012-10-26, 00:52:04,VALID,914.927,VALID,0,VALID,96.4819,VALID,0,VALID,19.8813,VALID,52,VALID,0,
2012-10-26, 00:53:04,VALID,914.899,VALID,0,VALID,96.4896,VALID,0,VALID,19.8798,VALID,52,VALID,0,
2012-10-26, 00:54:04,VALID,914.863,VALID,0,VALID,96.5124,VALID,0,VALID,19.9008,VALID,52,VALID,0,
2012-10-26, 00:55:04,VALID,914.849,VALID,0,VALID,96.5201,VALID,0,VALID,19.9008,VALID,52,VALID,0,
2012-10-26, 00:56:04,VALID,914.83,VALID,0,VALID,96.4972,VALID,0,VALID,19.8813,VALID,52,VALID,0,
2012-10-26, 00:57:04,VALID,914.816,VALID,0,VALID,96.5048,VALID,0,VALID,19.8813,VALID,52,VALID,0,
2012-10-26, 00:58:04,VALID,914.821,VALID,0,VALID,96.5201,VALID,0,VALID,19.9008,VALID,52,VALID,0,
2012-10-26, 00:59:04,VALID,914.832,VALID,0,VALID,96.5124,VALID,0,VALID,19.9008,VALID,52,VALID,0,
2012-10-26, 01:00:04,VALID,914.803,VALID,0,VALID,96.5353,VALID,0,VALID,19.9008,VALID,52,VALID,0,
2012-10-26, 01:01:04,VALID,914.801,VALID,0,VALID,96.5353,VALID,0,VALID,19.9203,VALID,52,VALID,0,
2012-10-26, 01:02:04,VALID,914.79,VALID,0,VALID,96.5582,VALID,0,VALID,19.9008,VALID,52,VALID,0,
2012-10-26, 01:03:04,VALID,914.767,VALID,0,VALID,96.5658,VALID,0,VALID,19.9008,VALID,52,VALID,0,
2012-10-26, 01:04:04,VALID,914.749,VALID,0,VALID,96.5963,VALID,0,VALID,19.9203,VALID,52,VALID,0,
2012-10-26, 01:05:04,VALID,914.745,VALID,0,VALID,96.6115,VALID,0,VALID,19.9398,VALID,52,VALID,0,
2012-10-26, 01:06:04,VALID,914.715,VALID,0,VALID,96.6192,VALID,0,VALID,19.9383,VALID,52,VALID,0,
2012-10-26, 01:07:04,VALID,914.728,VALID,0,VALID,96.642,VALID,0,VALID,19.9788,VALID,52,VALID,0,
2012-10-26, 01:08:04,VALID,914.734,VALID,0,VALID,96.6344,VALID,0,VALID,19.9984,VALID,52,VALID,0,
2012-10-26, 01:09:04,VALID,914.726,VALID,0,VALID,96.6192,VALID,0,VALID,19.9984,VALID,52,VALID,0,
2012-10-26, 01:10:04,VALID,914.694,VALID,0,VALID,96.642,VALID,0,VALID,20.0374,VALID,52,VALID,0,
2012-10-26, 01:11:04,VALID,914.707,VALID,0,VALID,96.6192,VALID,0,VALID,20.0374,VALID,52,VALID,0,
2012-10-26, 01:12:04,VALID,914.681,VALID,0,VALID,96.5887,VALID,0,VALID,19.9968,VALID,52,VALID,0,
2012-10-26, 01:13:04,VALID,914.683,VALID,0,VALID,96.5658,VALID,0,VALID,20.0179,VALID,52,VALID,0,
2012-10-26, 01:14:04,VALID,914.661,VALID,0,VALID,96.5582,VALID,0,VALID,19.9984,VALID,52,VALID,0,
2012-10-26, 01:15:04,VALID,914.67,VALID,0,VALID,96.5429,VALID,0,VALID,20.0374,VALID,52,VALID,0,
2012-10-26, 01:16:04,VALID,914.649,VALID,0,VALID,96.5429,VALID,0,VALID,20.0374,VALID,52,VALID,0,
2012-10-26, 01:17:04,VALID,914.635,VALID,0,VALID,96.5048,VALID,0,VALID,20.0374,VALID,52,VALID,0,
2012-10-26, 01:18:04,VALID,914.597,VALID,0,VALID,96.5048,VALID,0,VALID,20.0553,VALID,52,VALID,0,
2012-10-26, 01:19:04,VALID,914.586,VALID,0,VALID,96.5124,VALID,0,VALID,20.0959,VALID,52,VALID,0,
2012-10-26, 01:20:04,VALID,914.614,VALID,0,VALID,96.4743,VALID,0,VALID,20.0959,VALID,52,VALID,0,
2012-10-26, 01:21:04,VALID,914.602,VALID,0,VALID,96.4743,VALID,0,VALID,20.1154,VALID,52,VALID,0,
2012-10-26, 01:22:04,VALID,914.598,VALID,0,VALID,96.4515,VALID,0,VALID,20.1154,VALID,53,VALID,0,
2012-10-26, 01:23:04,VALID,914.587,VALID,0,VALID,96.4057,VALID,0,VALID,20.0749,VALID,54,VALID,0,
2012-10-26, 01:24:04,VALID,914.59,VALID,0,VALID,96.36,VALID,0,VALID,20.0764,VALID,111,VALID,0,
2012-10-26, 01:25:04,VALID,914.602,VALID,0,VALID,96.3524,VALID,0,VALID,20.0569,VALID,112,VALID,0,
2012-10-26, 01:26:04,VALID,914.585,VALID,0,VALID,96.3829,VALID,0,VALID,20.0374,VALID,112,VALID,0,
2012-10-26, 01:27:04,VALID,914.557,VALID,0,VALID,96.3676,VALID,0,VALID,20.0358,VALID,140,VALID,0,
2012-10-26, 01:28:04,VALID,914.556,VALID,0,VALID,96.3981,VALID,0,VALID,20.0163,VALID,140,VALID,0,
2012-10-26, 01:29:04,VALID,914.524,VALID,0,VALID,96.4133,VALID,0,VALID,20.0374,VALID,140,VALID,0,
2012-10-26, 01:30:04,VALID,914.541,VALID,0,VALID,96.4057,VALID,0,VALID,20.0374,VALID,139,VALID,0,
2012-10-26, 01:31:04,VALID,914.582,VALID,0,VALID,96.4362,VALID,0,VALID,20.0179,VALID,122,VALID,0,
2012-10-26, 01:32:04,VALID,914.584,VALID,0,VALID,96.4362,VALID,0,VALID,19.9984,VALID,127,VALID,0,
2012-10-26, 01:33:04,VALID,914.602,VALID,0,VALID,96.421,VALID,0,VALID,19.9984,VALID,127,VALID,0,
2012-10-26, 01:34:04,VALID,914.588,VALID,0,VALID,96.4515,VALID,0,VALID,19.9773,VALID,127,VALID,0,
2012-10-26, 01:35:04,VALID,914.596,VALID,0,VALID,96.4591,VALID,0,VALID,19.9984,VALID,127,VALID,0,
2012-10-26, 01:36:04,VALID,914.596,VALID,0,VALID,96.4591,VALID,0,VALID,19.9984,VALID,131,VALID,0,
2012-10-26, 01:37:04,VALID,914.597,VALID,0,VALID,96.5048,VALID,0,VALID,19.9984,VALID,136,VALID,0,
2012-10-26, 01:38:04,VALID,914.567,VALID,0,VALID,96.5048,VALID,0,VALID,20.0179,VALID,148,VALID,0,
2012-10-26, 01:39:04,VALID,914.576,VALID,0,VALID,96.5201,VALID,0,VALID,19.9984,VALID,174,VALID,0,
2012-10-26, 01:40:04,VALID,914.579,VALID,0,VALID,96.5048,VALID,0,VALID,19.9984,VALID,174,VALID,0,
2012-10-26, 01:41:04,VALID,914.554,VALID,0,VALID,96.5277,VALID,0,VALID,20.0179,VALID,174,VALID,0,
2012-10-26, 01:42:04,VALID,914.533,VALID,0,VALID,96.5811,VALID,0,VALID,20.0179,VALID,174,VALID,0,
2012-10-26, 01:43:04,VALID,914.53,VALID,0,VALID,96.5811,VALID,0,VALID,20.0374,VALID,174,VALID,0,
2012-10-26, 01:44:04,VALID,914.53,VALID,0,VALID,96.6039,VALID,0,VALID,20.0374,VALID,174,VALID,0,
2012-10-26, 01:45:04,VALID,914.504,VALID,0,VALID,96.6115,VALID,0,VALID,20.0569,VALID,174,VALID,0,
2012-10-26, 01:46:04,VALID,914.475,VALID,0,VALID,96.6268,VALID,0,VALID,20.0374,VALID,174,VALID,0,
2012-10-26, 01:47:04,VALID,914.449,VALID,0,VALID,96.6192,VALID,0,VALID,20.0569,VALID,174,VALID,0,
2012-10-26, 01:48:04,VALID,914.416,VALID,0,VALID,96.6115,VALID,0,VALID,20.0179,VALID,174,VALID,0,
2012-10-26, 01:49:04,VALID,914.409,VALID,0,VALID,96.6192,VALID,0,VALID,20.0179,VALID,174,VALID,0,
2012-10-26, 01:50:04,VALID,914.386,VALID,0,VALID,96.642,VALID,0,VALID,20.0374,VALID,174,VALID,0,
2012-10-26, 01:51:04,VALID,914.373,VALID,0,VALID,96.6497,VALID,0,VALID,20.0569,VALID,174,VALID,0,
2012-10-26, 01:52:04,VALID,914.368,VALID,0,VALID,96.642,VALID,0,VALID,20.0569,VALID,174,VALID,0,
2012-10-26, 01:53:04,VALID,914.351,VALID,0,VALID,96.6344,VALID,0,VALID,20.0569,VALID,174,VALID,0,
2012-10-26, 01:54:04,VALID,914.35,VALID,0,VALID,96.6268,VALID,0,VALID,20.0569,VALID,174,VALID,0,
2012-10-26, 01:55:04,VALID,914.307,VALID,0,VALID,96.6115,VALID,0,VALID,20.0764,VALID,174,VALID,0,
2012-10-26, 01:56:04,VALID,914.329,VALID,0,VALID,96.6268,VALID,0,VALID,20.0764,VALID,174,VALID,0,
2012-10-26, 01:57:04,VALID,914.311,VALID,0,VALID,96.5963,VALID,0.107441,VALID,20.0163,VALID,169,VALID,0,
2012-10-26, 01:58:04,VALID,914.304,VALID,0,VALID,96.5658,VALID,0.107441,VALID,20.0179,VALID,150,VALID,0,
2012-10-26, 01:59:04,VALID,914.278,VALID,0.2,VALID,96.5201,VALID,0,VALID,19.9773,VALID,101,VALID,0,
2012-10-26, 02:00:04,VALID,914.258,VALID,0,VALID,96.5429,VALID,0,VALID,19.9383,VALID,106,VALID,0,
2012-10-26, 02:01:04,VALID,914.24,VALID,0,VALID,96.5429,VALID,0.107441,VALID,19.9383,VALID,108,VALID,0,
2012-10-26, 02:02:04,VALID,914.207,VALID,0,VALID,96.5582,VALID,0,VALID,19.9383,VALID,108,VALID,0,
2012-10-26, 02:03:04,VALID,914.205,VALID,0,VALID,96.5963,VALID,0,VALID,19.9383,VALID,110,VALID,0,
2012-10-26, 02:04:04,VALID,914.191,VALID,0,VALID,96.5887,VALID,0,VALID,19.9188,VALID,110,VALID,0,
2012-10-26, 02:05:04,VALID,914.221,VALID,0,VALID,96.6039,VALID,0,VALID,19.9188,VALID,110,VALID,0,
2012-10-26, 02:06:04,VALID,914.202,VALID,0,VALID,96.5887,VALID,0.107441,VALID,19.8993,VALID,110,VALID,0,
2012-10-26, 02:07:04,VALID,914.182,VALID,0,VALID,96.5811,VALID,0.107441,VALID,19.9188,VALID,111,VALID,0,
2012-10-26, 02:08:04,VALID,914.158,VALID,0,VALID,96.5887,VALID,0.107441,VALID,19.8993,VALID,110,VALID,0,
2012-10-26, 02:09:04,VALID,914.199,VALID,0,VALID,96.5811,VALID,0.107441,VALID,19.8993,VALID,110,VALID,0,
2012-10-26, 02:10:04,VALID,914.145,VALID,0,VALID,96.5887,VALID,0,VALID,19.8993,VALID,110,VALID,0,
2012-10-26, 02:11:04,VALID,914.152,VALID,0,VALID,96.5963,VALID,0.107441,VALID,19.9203,VALID,110,VALID,0,
2012-10-26, 02:12:04,VALID,914.174,VALID,0,VALID,96.6115,VALID,0,VALID,19.9008,VALID,110,VALID,0,
2012-10-26, 02:13:04,VALID,914.177,VALID,0,VALID,96.6192,VALID,0,VALID,19.9008,VALID,110,VALID,0,
2012-10-26, 02:14:04,VALID,914.171,VALID,0,VALID,96.642,VALID,0,VALID,19.8813,VALID,110,VALID,0,
2012-10-26, 02:15:04,VALID,914.168,VALID,0,VALID,96.6344,VALID,0,VALID,19.8813,VALID,110,VALID,0,
2012-10-26, 02:16:04,VALID,914.151,VALID,0,VALID,96.6649,VALID,0,VALID,19.9008,VALID,110,VALID,0,
2012-10-26, 02:17:04,VALID,914.151,VALID,0,VALID,96.6649,VALID,0,VALID,19.9008,VALID,111,VALID,0,
2012-10-26, 02:18:04,VALID,914.145,VALID,0,VALID,96.6649,VALID,0,VALID,19.8813,VALID,110,VALID,0,
2012-10-26, 02:19:04,VALID,914.155,VALID,0,VALID,96.6725,VALID,0,VALID,19.8813,VALID,110,VALID,0,
2012-10-26, 02:20:04,VALID,914.145,VALID,0,VALID,96.642,VALID,0,VALID,19.8618,VALID,110,VALID,0,
2012-10-26, 02:21:04,VALID,914.134,VALID,0,VALID,96.642,VALID,0,VALID,19.8408,VALID,110,VALID,0,
2012-10-26, 02:22:04,VALID,914.135,VALID,0,VALID,96.6725,VALID,0,VALID,19.8228,VALID,110,VALID,0,
2012-10-26, 02:23:04,VALID,914.116,VALID,0,VALID,96.6725,VALID,0,VALID,19.8228,VALID,110,VALID,0,
2012-10-26, 02:24:04,VALID,914.13,VALID,0,VALID,96.6878,VALID,0,VALID,19.8018,VALID,110,VALID,0,
2012-10-26, 02:25:04,VALID,914.118,VALID,0,VALID,96.703,VALID,0,VALID,19.8423,VALID,110,VALID,0,
2012-10-26, 02:26:04,VALID,914.114,VALID,0,VALID,96.7335,VALID,0,VALID,19.8423,VALID,110,VALID,0,
2012-10-26, 02:27:04,VALID,914.108,VALID,0,VALID,96.7488,VALID,0,VALID,19.8408,VALID,110,VALID,0,
2012-10-26, 02:28:04,VALID,914.083,VALID,0,VALID,96.764,VALID,0,VALID,19.8408,VALID,111,VALID,0,
2012-10-26, 02:29:04,VALID,914.119,VALID,0,VALID,96.7564,VALID,0,VALID,19.8603,VALID,111,VALID,0,
2012-10-26, 02:30:04,VALID,914.075,VALID,0,VALID,96.7869,VALID,0.107441,VALID,19.8993,VALID,110,VALID,0,
2012-10-26, 02:31:04,VALID,914.067,VALID,0,VALID,96.7716,VALID,0.107441,VALID,19.8798,VALID,110,VALID,0,
2012-10-26, 02:32:04,VALID,914.064,VALID,0,VALID,96.7793,VALID,0,VALID,19.8798,VALID,110,VALID,0,
2012-10-26, 02:33:04,VALID,914.053,VALID,0,VALID,96.764,VALID,0.107441,VALID,19.8603,VALID,110,VALID,0,
2012-10-26, 02:34:04,VALID,914.063,VALID,0,VALID,96.7335,VALID,0,VALID,19.8603,VALID,110,VALID,0,
2012-10-26, 02:35:04,VALID,914.042,VALID,0,VALID,96.7564,VALID,0,VALID,19.8408,VALID,110,VALID,0,
2012-10-26, 02:36:04,VALID,914.022,VALID,0,VALID,96.7869,VALID,0,VALID,19.8603,VALID,110,VALID,0,
2012-10-26, 02:37:04,VALID,914.002,VALID,0,VALID,96.7869,VALID,0,VALID,19.8798,VALID,110,VALID,0,
2012-10-26, 02:38:04,VALID,914.01,VALID,0,VALID,96.7869,VALID,0.107441,VALID,19.8603,VALID,110,VALID,0,
2012-10-26, 02:39:04,VALID,913.982,VALID,0,VALID,96.7869,VALID,0,VALID,19.8408,VALID,110,VALID,0,
2012-10-26, 02:40:04,VALID,913.992,VALID,0,VALID,96.7793,VALID,0.107441,VALID,19.8603,VALID,110,VALID,0,
2012-10-26, 02:41:04,VALID,914.021,VALID,0,VALID,96.7793,VALID,0,VALID,19.8798,VALID,110,VALID,0,
2012-10-26, 02:42:04,VALID,913.983,VALID,0,VALID,96.7869,VALID,0,VALID,19.8618,VALID,110,VALID,0,
2012-10-26, 02:43:04,VALID,913.965,VALID,0,VALID,96.8021,VALID,0,VALID,19.8618,VALID,110,VALID,0,
2012-10-26, 02:44:04,VALID,913.951,VALID,0,VALID,96.7793,VALID,0,VALID,19.8828,VALID,110,VALID,0,
2012-10-26, 02:45:04,VALID,913.962,VALID,0,VALID,96.7869,VALID,0,VALID,19.8618,VALID,110,VALID,0,
2012-10-26, 02:46:04,VALID,913.927,VALID,0,VALID,96.7945,VALID,0,VALID,19.8618,VALID,110,VALID,0,
2012-10-26, 02:47:04,VALID,913.921,VALID,0,VALID,96.7869,VALID,0,VALID,19.8618,VALID,110,VALID,0,
2012-10-26, 02:48:04,VALID,913.907,VALID,0,VALID,96.8174,VALID,0,VALID,19.8618,VALID,110,VALID,0,
2012-10-26, 02:49:04,VALID,913.935,VALID,0,VALID,96.8098,VALID,0,VALID,19.8618,VALID,110,VALID,0,
2012-10-26, 02:50:04,VALID,913.916,VALID,0,VALID,96.8098,VALID,0,VALID,19.8813,VALID,110,VALID,0,
2012-10-26, 02:51:04,VALID,913.885,VALID,0,VALID,96.8326,VALID,0,VALID,19.8813,VALID,110,VALID,0,
2012-10-26, 02:52:04,VALID,913.885,VALID,0,VALID,96.8174,VALID,0,VALID,19.8813,VALID,110,VALID,0,
2012-10-26, 02:53:04,VALID,913.893,VALID,0,VALID,96.8098,VALID,0,VALID,19.9008,VALID,110,VALID,0,
2012-10-26, 02:54:04,VALID,913.874,VALID,0,VALID,96.825,VALID,0,VALID,19.9203,VALID,110,VALID,0,
2012-10-26, 02:55:04,VALID,913.899,VALID,0,VALID,96.8555,VALID,0,VALID,19.9008,VALID,110,VALID,0,
2012-10-26, 02:56:04,VALID,913.89,VALID,0,VALID,96.8326,VALID,0,VALID,19.9008,VALID,110,VALID,0,
2012-10-26, 02:57:04,VALID,913.911,VALID,0,VALID,96.8174,VALID,0,VALID,19.9008,VALID,110,VALID,0,
2012-10-26, 02:58:04,VALID,913.914,VALID,0,VALID,96.7945,VALID,0,VALID,19.9008,VALID,110,VALID,0,
2012-10-26, 02:59:04,VALID,913.894,VALID,0,VALID,96.7793,VALID,0,VALID,19.9203,VALID,110,VALID,0,
2012-10-26, 03:00:04,VALID,913.89,VALID,0,VALID,96.764,VALID,0,VALID,19.9398,VALID,110,VALID,0,
2012-10-26, 03:01:04,VALID,913.906,VALID,0,VALID,96.7411,VALID,0,VALID,19.9593,VALID,110,VALID,0,
2012-10-26, 03:02:04,VALID,913.909,VALID,0,VALID,96.7488,VALID,0,VALID,19.9984,VALID,110,VALID,0,
2012-10-26, 03:03:04,VALID,913.941,VALID,0,VALID,96.7564,VALID,0,VALID,20.0179,VALID,110,VALID,0,
2012-10-26, 03:04:04,VALID,913.915,VALID,0,VALID,96.7107,VALID,0,VALID,20.0358,VALID,110,VALID,0,
2012-10-26, 03:05:04,VALID,913.944,VALID,0,VALID,96.7107,VALID,0,VALID,20.0764,VALID,110,VALID,0,
2012-10-26, 03:06:04,VALID,913.932,VALID,0,VALID,96.703,VALID,0,VALID,20.1154,VALID,110,VALID,0,
2012-10-26, 03:07:04,VALID,913.955,VALID,0,VALID,96.6878,VALID,0,VALID,20.1154,VALID,110,VALID,0,
2012-10-26, 03:08:04,VALID,913.929,VALID,0,VALID,96.6725,VALID,0,VALID,20.1154,VALID,110,VALID,0,
2012-10-26, 03:09:04,VALID,913.921,VALID,0,VALID,96.6497,VALID,0,VALID,20.1154,VALID,110,VALID,0,
2012-10-26, 03:10:04,VALID,913.918,VALID,0,VALID,96.6344,VALID,0,VALID,20.1154,VALID,110,VALID,0,
2012-10-26, 03:11:04,VALID,913.966,VALID,0,VALID,96.6115,VALID,0,VALID,20.0959,VALID,110,VALID,0,
2012-10-26, 03:12:04,VALID,913.906,VALID,0,VALID,96.5811,VALID,0,VALID,20.0959,VALID,110,VALID,0,
2012-10-26, 03:13:04,VALID,913.892,VALID,0,VALID,96.5811,VALID,0,VALID,20.0944,VALID,110,VALID,0,
2012-10-26, 03:14:04,VALID,913.935,VALID,0,VALID,96.5963,VALID,0,VALID,20.1154,VALID,110,VALID,0,
2012-10-26, 03:15:04,VALID,913.877,VALID,0,VALID,96.5734,VALID,0,VALID,20.1349,VALID,110,VALID,0,
2012-10-26, 03:16:04,VALID,913.85,VALID,0,VALID,96.5658,VALID,0,VALID,20.1154,VALID,110,VALID,0,
2012-10-26, 03:17:04,VALID,913.857,VALID,0,VALID,96.5658,VALID,0,VALID,20.0959,VALID,110,VALID,0,
2012-10-26, 03:18:04,VALID,913.865,VALID,0,VALID,96.5201,VALID,0,VALID,20.0764,VALID,110,VALID,0,
2012-10-26, 03:19:04,VALID,913.853,VALID,0,VALID,96.4667,VALID,0,VALID,20.0764,VALID,110,VALID,0,
2012-10-26, 03:20:04,VALID,913.882,VALID,0,VALID,96.4591,VALID,0,VALID,20.0764,VALID,110,VALID,0,
2012-10-26, 03:21:04,VALID,913.875,VALID,0,VALID,96.4438,VALID,0,VALID,20.0749,VALID,110,VALID,0,
2012-10-26, 03:22:04,VALID,913.872,VALID,0,VALID,96.4591,VALID,0,VALID,20.0944,VALID,110,VALID,0,
2012-10-26, 03:23:04,VALID,913.849,VALID,0,VALID,96.4515,VALID,0,VALID,20.1154,VALID,110,VALID,0,
2012-10-26, 03:24:04,VALID,913.871,VALID,0,VALID,96.4515,VALID,0,VALID,20.1154,VALID,110,VALID,0,
2012-10-26, 03:25:04,VALID,913.87,VALID,0,VALID,96.4286,VALID,0,VALID,20.1349,VALID,110,VALID,0,
2012-10-26, 03:26:04,VALID,913.869,VALID,0,VALID,96.4438,VALID,0,VALID,20.1349,VALID,110,VALID,0,
2012-10-26, 03:27:04,VALID,913.891,VALID,0,VALID,96.3981,VALID,0,VALID,20.1544,VALID,110,VALID,0,
2012-10-26, 03:28:04,VALID,913.866,VALID,0.2,VALID,96.3829,VALID,0,VALID,20.1349,VALID,110,VALID,0,
2012-10-26, 03:29:04,VALID,913.879,VALID,0,VALID,96.3676,VALID,0,VALID,20.1154,VALID,110,VALID,0,
2012-10-26, 03:30:04,VALID,913.871,VALID,0,VALID,96.3219,VALID,0,VALID,20.0959,VALID,110,VALID,0,
2012-10-26, 03:31:04,VALID,913.856,VALID,0,VALID,96.36,VALID,0,VALID,20.0959,VALID,110,VALID,0,
2012-10-26, 03:32:04,VALID,913.85,VALID,0,VALID,96.3447,VALID,0,VALID,20.0959,VALID,110,VALID,0,
2012-10-26, 03:33:04,VALID,913.817,VALID,0,VALID,96.3524,VALID,0,VALID,20.0553,VALID,110,VALID,0,
2012-10-26, 03:34:04,VALID,913.877,VALID,0,VALID,96.3676,VALID,0,VALID,20.0764,VALID,110,VALID,0,
2012-10-26, 03:35:04,VALID,913.87,VALID,0,VALID,96.3905,VALID,0,VALID,20.0764,VALID,110,VALID,0,
2012-10-26, 03:36:04,VALID,913.881,VALID,0,VALID,96.421,VALID,0,VALID,20.0764,VALID,110,VALID,0,
2012-10-26, 03:37:04,VALID,913.868,VALID,0,VALID,96.4286,VALID,0,VALID,20.0764,VALID,110,VALID,0,
2012-10-26, 03:38:04,VALID,913.847,VALID,0,VALID,96.4362,VALID,0,VALID,20.0749,VALID,110,VALID,0,
2012-10-26, 03:39:04,VALID,913.785,VALID,0,VALID,96.4362,VALID,0,VALID,20.0764,VALID,110,VALID,0,
2012-10-26, 03:40:04,VALID,913.801,VALID,0,VALID,96.4591,VALID,0,VALID,20.0764,VALID,110,VALID,0,
2012-10-26, 03:41:04,VALID,913.785,VALID,0.2,VALID,96.4743,VALID,0,VALID,20.0553,VALID,110,VALID,0,
2012-10-26, 03:42:04,VALID,913.748,VALID,0,VALID,96.4819,VALID,0,VALID,20.0974,VALID,110,VALID,0,
2012-10-26, 03:43:04,VALID,913.737,VALID,0,VALID,96.4743,VALID,0,VALID,20.0569,VALID,110,VALID,0,
2012-10-26, 03:44:04,VALID,913.776,VALID,0,VALID,96.4896,VALID,0,VALID,20.0569,VALID,110,VALID,0,
2012-10-26, 03:45:04,VALID,913.748,VALID,0,VALID,96.5124,VALID,0,VALID,20.0959,VALID,110,VALID,0,
2012-10-26, 03:46:04,VALID,913.781,VALID,0,VALID,96.5353,VALID,0,VALID,20.0764,VALID,110,VALID,0,
2012-10-26, 03:47:04,VALID,913.759,VALID,0,VALID,96.5124,VALID,0,VALID,20.0569,VALID,110,VALID,0,
2012-10-26, 03:48:04,VALID,913.742,VALID,0,VALID,96.4819,VALID,0,VALID,20.0569,VALID,110,VALID,0,
2012-10-26, 03:49:04,VALID,913.82,VALID,0,VALID,96.4972,VALID,0,VALID,20.0179,VALID,110,VALID,0,
2012-10-26, 03:50:04,VALID,913.834,VALID,0,VALID,96.5048,VALID,0,VALID,19.9984,VALID,110,VALID,0,
2012-10-26, 03:51:04,VALID,913.811,VALID,0,VALID,96.5048,VALID,0,VALID,19.9788,VALID,110,VALID,0,
2012-10-26, 03:52:04,VALID,913.849,VALID,0,VALID,96.5277,VALID,0,VALID,19.9788,VALID,110,VALID,0,
2012-10-26, 03:53:04,VALID,913.875,VALID,0,VALID,96.5201,VALID,0,VALID,19.9788,VALID,110,VALID,0,
2012-10-26, 03:54:04,VALID,913.902,VALID,0,VALID,96.5506,VALID,0,VALID,19.9593,VALID,110,VALID,0,
2012-10-26, 03:55:04,VALID,913.906,VALID,0,VALID,96.5582,VALID,0,VALID,19.9398,VALID,110,VALID,0,
2012-10-26, 03:56:04,VALID,913.928,VALID,0,VALID,96.5582,VALID,0,VALID,19.9203,VALID,110,VALID,0,
2012-10-26, 03:57:04,VALID,913.938,VALID,0,VALID,96.6115,VALID,0,VALID,19.8993,VALID,115,VALID,0,
2012-10-26, 03:58:04,VALID,913.92,VALID,0,VALID,96.5963,VALID,0,VALID,19.9203,VALID,108,VALID,0,
2012-10-26, 03:59:04,VALID,913.947,VALID,0,VALID,96.6192,VALID,0,VALID,19.9203,VALID,113,VALID,0,